Year,Month,Day,Hour,Minute,Value (Times are PST for insolation in W/m^2)
2018,11,05,00,00,0.00
2018,11,05,00,01,0.00
2018,11,05,00,02,0.00
2018,11,05,00,03,0.00
2018,11,05,00,04,0.00
2018,11,05,00,05,0.00
2018,11,05,00,06,0.00
2018,11,05,00,07,0.00
2018,11,05,00,08,0.00
2018,11,05,00,09,0.00
2018,11,05,00,10,0.00
2018,11,05,00,11,0.00
2018,11,05,00,12,0.00
2018,11,05,00,13,0.00
2018,11,05,00,14,0.00
2018,11,05,00,15,0.00
2018,11,05,00,16,0.00
2018,11,05,00,17,0.00
2018,11,05,00,18,0.00
2018,11,05,00,19,0.00
2018,11,05,00,20,0.00
2018,11,05,00,21,0.00
2018,11,05,00,22,0.00
2018,11,05,00,23,0.00
2018,11,05,00,24,0.00
2018,11,05,00,25,0.00
2018,11,05,00,26,0.00
2018,11,05,00,27,0.00
2018,11,05,00,28,0.00
2018,11,05,00,29,0.00
2018,11,05,00,30,0.00
2018,11,05,00,31,0.00
2018,11,05,00,32,0.00
2018,11,05,00,33,0.00
2018,11,05,00,34,0.00
2018,11,05,00,35,0.00
2018,11,05,00,36,0.00
2018,11,05,00,37,0.00
2018,11,05,00,38,0.00
2018,11,05,00,39,0.00
2018,11,05,00,40,0.00
2018,11,05,00,41,0.00
2018,11,05,00,42,0.00
2018,11,05,00,43,0.00
2018,11,05,00,44,0.00
2018,11,05,00,45,0.00
2018,11,05,00,46,0.00
2018,11,05,00,47,0.00
2018,11,05,00,48,0.00
2018,11,05,00,49,0.00
2018,11,05,00,50,0.00
2018,11,05,00,51,0.00
2018,11,05,00,52,0.00
2018,11,05,00,53,0.00
2018,11,05,00,54,0.00
2018,11,05,00,55,0.00
2018,11,05,00,56,0.00
2018,11,05,00,57,0.00
2018,11,05,00,58,0.00
2018,11,05,00,59,0.00
2018,11,05,01,00,0.00
2018,11,05,01,01,0.00
2018,11,05,01,02,0.00
2018,11,05,01,03,0.00
2018,11,05,01,04,0.00
2018,11,05,01,05,0.00
2018,11,05,01,06,0.00
2018,11,05,01,07,0.00
2018,11,05,01,08,0.00
2018,11,05,01,09,0.00
2018,11,05,01,10,0.00
2018,11,05,01,11,0.00
2018,11,05,01,12,0.00
2018,11,05,01,13,0.00
2018,11,05,01,14,0.00
2018,11,05,01,15,0.00
2018,11,05,01,16,0.00
2018,11,05,01,17,0.00
2018,11,05,01,18,0.00
2018,11,05,01,19,0.00
2018,11,05,01,20,0.00
2018,11,05,01,21,0.00
2018,11,05,01,22,0.00
2018,11,05,01,23,0.00
2018,11,05,01,24,0.00
2018,11,05,01,25,0.00
2018,11,05,01,26,0.00
2018,11,05,01,27,0.00
2018,11,05,01,28,0.00
2018,11,05,01,29,0.00
2018,11,05,01,30,0.00
2018,11,05,01,31,0.00
2018,11,05,01,32,0.00
2018,11,05,01,33,0.00
2018,11,05,01,34,0.00
2018,11,05,01,35,0.00
2018,11,05,01,36,0.00
2018,11,05,01,37,0.00
2018,11,05,01,38,0.00
2018,11,05,01,39,0.00
2018,11,05,01,40,0.00
2018,11,05,01,41,0.00
2018,11,05,01,42,0.00
2018,11,05,01,43,0.00
2018,11,05,01,44,0.00
2018,11,05,01,45,0.00
2018,11,05,01,46,0.00
2018,11,05,01,47,0.00
2018,11,05,01,48,0.00
2018,11,05,01,49,0.00
2018,11,05,01,50,0.00
2018,11,05,01,51,0.00
2018,11,05,01,52,0.00
2018,11,05,01,53,0.00
2018,11,05,01,54,0.00
2018,11,05,01,55,0.00
2018,11,05,01,56,0.00
2018,11,05,01,57,0.00
2018,11,05,01,58,0.00
2018,11,05,01,59,0.00
2018,11,05,02,00,0.00
2018,11,05,02,01,0.00
2018,11,05,02,02,0.00
2018,11,05,02,03,0.00
2018,11,05,02,04,0.00
2018,11,05,02,05,0.00
2018,11,05,02,06,0.00
2018,11,05,02,07,0.00
2018,11,05,02,08,0.00
2018,11,05,02,09,0.00
2018,11,05,02,10,0.00
2018,11,05,02,11,0.00
2018,11,05,02,12,0.00
2018,11,05,02,13,0.00
2018,11,05,02,14,0.00
2018,11,05,02,15,0.00
2018,11,05,02,16,0.00
2018,11,05,02,17,0.00
2018,11,05,02,18,0.00
2018,11,05,02,19,0.00
2018,11,05,02,20,0.00
2018,11,05,02,21,0.00
2018,11,05,02,22,0.00
2018,11,05,02,23,0.00
2018,11,05,02,24,0.00
2018,11,05,02,25,0.00
2018,11,05,02,26,0.00
2018,11,05,02,27,0.00
2018,11,05,02,28,0.00
2018,11,05,02,29,0.00
2018,11,05,02,30,0.00
2018,11,05,02,31,0.00
2018,11,05,02,32,0.00
2018,11,05,02,33,0.00
2018,11,05,02,34,0.00
2018,11,05,02,35,0.00
2018,11,05,02,36,0.00
2018,11,05,02,37,0.00
2018,11,05,02,38,0.00
2018,11,05,02,39,0.00
2018,11,05,02,40,0.00
2018,11,05,02,41,0.00
2018,11,05,02,42,0.00
2018,11,05,02,43,0.00
2018,11,05,02,44,0.00
2018,11,05,02,45,0.00
2018,11,05,02,46,0.00
2018,11,05,02,47,0.00
2018,11,05,02,48,0.00
2018,11,05,02,49,0.00
2018,11,05,02,50,0.00
2018,11,05,02,51,0.00
2018,11,05,02,52,0.00
2018,11,05,02,53,0.00
2018,11,05,02,54,0.00
2018,11,05,02,55,0.00
2018,11,05,02,56,0.00
2018,11,05,02,57,0.00
2018,11,05,02,58,0.00
2018,11,05,02,59,0.00
2018,11,05,03,00,0.00
2018,11,05,03,01,0.00
2018,11,05,03,02,0.00
2018,11,05,03,03,0.00
2018,11,05,03,04,0.00
2018,11,05,03,05,0.00
2018,11,05,03,06,0.00
2018,11,05,03,07,0.00
2018,11,05,03,08,0.00
2018,11,05,03,09,0.00
2018,11,05,03,10,0.00
2018,11,05,03,11,0.00
2018,11,05,03,12,0.00
2018,11,05,03,13,0.00
2018,11,05,03,14,0.00
2018,11,05,03,15,0.00
2018,11,05,03,16,0.00
2018,11,05,03,17,0.00
2018,11,05,03,18,0.00
2018,11,05,03,19,0.00
2018,11,05,03,20,0.00
2018,11,05,03,21,0.00
2018,11,05,03,22,0.00
2018,11,05,03,23,0.00
2018,11,05,03,24,0.00
2018,11,05,03,25,0.00
2018,11,05,03,26,0.00
2018,11,05,03,27,0.00
2018,11,05,03,28,0.00
2018,11,05,03,29,0.00
2018,11,05,03,30,0.00
2018,11,05,03,31,0.00
2018,11,05,03,32,0.00
2018,11,05,03,33,0.00
2018,11,05,03,34,0.00
2018,11,05,03,35,0.00
2018,11,05,03,36,0.00
2018,11,05,03,37,0.00
2018,11,05,03,38,0.00
2018,11,05,03,39,0.00
2018,11,05,03,40,0.00
2018,11,05,03,41,0.00
2018,11,05,03,42,0.00
2018,11,05,03,43,0.00
2018,11,05,03,44,0.00
2018,11,05,03,45,0.00
2018,11,05,03,46,0.00
2018,11,05,03,47,0.00
2018,11,05,03,48,0.00
2018,11,05,03,49,0.00
2018,11,05,03,50,0.00
2018,11,05,03,51,0.00
2018,11,05,03,52,0.00
2018,11,05,03,53,0.00
2018,11,05,03,54,0.00
2018,11,05,03,55,0.00
2018,11,05,03,56,0.00
2018,11,05,03,57,0.00
2018,11,05,03,58,0.00
2018,11,05,03,59,0.00
2018,11,05,04,00,0.00
2018,11,05,04,01,0.00
2018,11,05,04,02,0.00
2018,11,05,04,03,0.00
2018,11,05,04,04,0.00
2018,11,05,04,05,0.00
2018,11,05,04,06,0.00
2018,11,05,04,07,0.00
2018,11,05,04,08,0.00
2018,11,05,04,09,0.00
2018,11,05,04,10,0.00
2018,11,05,04,11,0.00
2018,11,05,04,12,0.00
2018,11,05,04,13,0.00
2018,11,05,04,14,0.00
2018,11,05,04,15,0.00
2018,11,05,04,16,0.00
2018,11,05,04,17,0.00
2018,11,05,04,18,0.00
2018,11,05,04,19,0.00
2018,11,05,04,20,0.00
2018,11,05,04,21,0.00
2018,11,05,04,22,0.00
2018,11,05,04,23,0.00
2018,11,05,04,24,0.00
2018,11,05,04,25,0.00
2018,11,05,04,26,0.00
2018,11,05,04,27,0.00
2018,11,05,04,28,0.00
2018,11,05,04,29,0.00
2018,11,05,04,30,0.00
2018,11,05,04,31,0.00
2018,11,05,04,32,0.00
2018,11,05,04,33,0.00
2018,11,05,04,34,0.00
2018,11,05,04,35,0.00
2018,11,05,04,36,0.00
2018,11,05,04,37,0.00
2018,11,05,04,38,0.00
2018,11,05,04,39,0.00
2018,11,05,04,40,0.00
2018,11,05,04,41,0.00
2018,11,05,04,42,0.00
2018,11,05,04,43,0.00
2018,11,05,04,44,0.00
2018,11,05,04,45,0.00
2018,11,05,04,46,0.00
2018,11,05,04,47,0.00
2018,11,05,04,48,0.00
2018,11,05,04,49,0.00
2018,11,05,04,50,0.00
2018,11,05,04,51,0.00
2018,11,05,04,52,0.00
2018,11,05,04,53,0.00
2018,11,05,04,54,0.00
2018,11,05,04,55,0.00
2018,11,05,04,56,0.00
2018,11,05,04,57,0.00
2018,11,05,04,58,0.00
2018,11,05,04,59,0.00
2018,11,05,05,00,0.00
2018,11,05,05,01,0.00
2018,11,05,05,02,0.00
2018,11,05,05,03,0.00
2018,11,05,05,04,0.00
2018,11,05,05,05,0.00
2018,11,05,05,06,0.00
2018,11,05,05,07,0.00
2018,11,05,05,08,0.00
2018,11,05,05,09,0.00
2018,11,05,05,10,0.00
2018,11,05,05,11,0.00
2018,11,05,05,12,0.00
2018,11,05,05,13,0.00
2018,11,05,05,14,0.00
2018,11,05,05,15,0.00
2018,11,05,05,16,0.00
2018,11,05,05,17,0.00
2018,11,05,05,18,0.00
2018,11,05,05,19,0.00
2018,11,05,05,20,0.00
2018,11,05,05,21,0.00
2018,11,05,05,22,0.00
2018,11,05,05,23,0.00
2018,11,05,05,24,0.00
2018,11,05,05,25,0.00
2018,11,05,05,26,0.00
2018,11,05,05,27,0.00
2018,11,05,05,28,0.00
2018,11,05,05,29,0.00
2018,11,05,05,30,0.00
2018,11,05,05,31,0.00
2018,11,05,05,32,0.00
2018,11,05,05,33,0.00
2018,11,05,05,34,0.00
2018,11,05,05,35,0.00
2018,11,05,05,36,0.00
2018,11,05,05,37,0.00
2018,11,05,05,38,0.00
2018,11,05,05,39,0.00
2018,11,05,05,40,0.00
2018,11,05,05,41,0.00
2018,11,05,05,42,0.00
2018,11,05,05,43,0.00
2018,11,05,05,44,0.00
2018,11,05,05,45,0.00
2018,11,05,05,46,0.00
2018,11,05,05,47,0.00
2018,11,05,05,48,0.00
2018,11,05,05,49,0.00
2018,11,05,05,50,0.00
2018,11,05,05,51,0.00
2018,11,05,05,52,0.00
2018,11,05,05,53,0.00
2018,11,05,05,54,0.00
2018,11,05,05,55,0.00
2018,11,05,05,56,0.00
2018,11,05,05,57,0.00
2018,11,05,05,58,0.00
2018,11,05,05,59,0.00
2018,11,05,06,00,0.00
2018,11,05,06,01,0.00
2018,11,05,06,02,0.00
2018,11,05,06,03,0.00
2018,11,05,06,04,0.00
2018,11,05,06,05,0.00
2018,11,05,06,06,0.00
2018,11,05,06,07,0.00
2018,11,05,06,08,0.00
2018,11,05,06,09,0.00
2018,11,05,06,10,0.00
2018,11,05,06,11,0.00
2018,11,05,06,12,0.00
2018,11,05,06,13,0.00
2018,11,05,06,14,0.00
2018,11,05,06,15,0.00
2018,11,05,06,16,0.00
2018,11,05,06,17,0.00
2018,11,05,06,18,0.00
2018,11,05,06,19,0.00
2018,11,05,06,20,0.00
2018,11,05,06,21,0.00
2018,11,05,06,22,0.00
2018,11,05,06,23,0.00
2018,11,05,06,24,0.00
2018,11,05,06,25,0.00
2018,11,05,06,26,0.00
2018,11,05,06,27,0.00
2018,11,05,06,28,0.00
2018,11,05,06,29,0.00
2018,11,05,06,30,0.00
2018,11,05,06,31,0.00
2018,11,05,06,32,0.00
2018,11,05,06,33,0.00
2018,11,05,06,34,0.00
2018,11,05,06,35,0.00
2018,11,05,06,36,0.00
2018,11,05,06,37,0.00
2018,11,05,06,38,0.00
2018,11,05,06,39,0.00
2018,11,05,06,40,0.00
2018,11,05,06,41,0.00
2018,11,05,06,42,0.00
2018,11,05,06,43,0.00
2018,11,05,06,44,0.00
2018,11,05,06,45,0.00
2018,11,05,06,46,0.00
2018,11,05,06,47,0.00
2018,11,05,06,48,0.00
2018,11,05,06,49,0.00
2018,11,05,06,50,0.00
2018,11,05,06,51,0.00
2018,11,05,06,52,0.00
2018,11,05,06,53,0.00
2018,11,05,06,54,0.00
2018,11,05,06,55,0.00
2018,11,05,06,56,0.00
2018,11,05,06,57,0.00
2018,11,05,06,58,0.00
2018,11,05,06,59,0.00
2018,11,05,07,00,0.00
2018,11,05,07,01,0.00
2018,11,05,07,02,0.00
2018,11,05,07,03,0.00
2018,11,05,07,04,0.00
2018,11,05,07,05,0.00
2018,11,05,07,06,0.00
2018,11,05,07,07,0.00
2018,11,05,07,08,0.00
2018,11,05,07,09,0.00
2018,11,05,07,10,0.00
2018,11,05,07,11,0.00
2018,11,05,07,12,0.00
2018,11,05,07,13,0.00
2018,11,05,07,14,0.00
2018,11,05,07,15,0.00
2018,11,05,07,16,0.00
2018,11,05,07,17,1.50
2018,11,05,07,18,5.00
2018,11,05,07,19,5.00
2018,11,05,07,20,5.00
2018,11,05,07,21,6.30
2018,11,05,07,22,7.00
2018,11,05,07,23,7.00
2018,11,05,07,24,7.00
2018,11,05,07,25,7.00
2018,11,05,07,26,7.00
2018,11,05,07,27,7.00
2018,11,05,07,28,8.10
2018,11,05,07,29,9.00
2018,11,05,07,30,9.00
2018,11,05,07,31,9.00
2018,11,05,07,32,9.00
2018,11,05,07,33,9.00
2018,11,05,07,34,9.50
2018,11,05,07,35,11.00
2018,11,05,07,36,11.00
2018,11,05,07,37,11.60
2018,11,05,07,38,12.00
2018,11,05,07,39,12.00
2018,11,05,07,40,12.00
2018,11,05,07,41,14.00
2018,11,05,07,42,14.50
2018,11,05,07,43,16.00
2018,11,05,07,44,16.80
2018,11,05,07,45,18.00
2018,11,05,07,46,18.60
2018,11,05,07,47,19.00
2018,11,05,07,48,20.70
2018,11,05,07,49,23.00
2018,11,05,07,50,25.10
2018,11,05,07,51,26.00
2018,11,05,07,52,26.00
2018,11,05,07,53,27.00
2018,11,05,07,54,29.20
2018,11,05,07,55,31.40
2018,11,05,07,56,32.80
2018,11,05,07,57,34.70
2018,11,05,07,58,37.20
2018,11,05,07,59,39.00
2018,11,05,08,00,39.90
2018,11,05,08,01,41.20
2018,11,05,08,02,40.00
2018,11,05,08,03,41.30
2018,11,05,08,04,43.50
2018,11,05,08,05,44.00
2018,11,05,08,06,43.90
2018,11,05,08,07,42.00
2018,11,05,08,08,41.50
2018,11,05,08,09,39.70
2018,11,05,08,10,39.00
2018,11,05,08,11,37.90
2018,11,05,08,12,35.70
2018,11,05,08,13,33.60
2018,11,05,08,14,33.00
2018,11,05,08,15,31.90
2018,11,05,08,16,30.30
2018,11,05,08,17,32.30
2018,11,05,08,18,34.60
2018,11,05,08,19,39.40
2018,11,05,08,20,44.90
2018,11,05,08,21,48.40
2018,11,05,08,22,49.00
2018,11,05,08,23,50.80
2018,11,05,08,24,51.00
2018,11,05,08,25,51.00
2018,11,05,08,26,52.00
2018,11,05,08,27,54.80
2018,11,05,08,28,56.00
2018,11,05,08,29,56.00
2018,11,05,08,30,57.50
2018,11,05,08,31,58.00
2018,11,05,08,32,58.40
2018,11,05,08,33,62.50
2018,11,05,08,34,66.40
2018,11,05,08,35,71.40
2018,11,05,08,36,76.50
2018,11,05,08,37,81.30
2018,11,05,08,38,83.70
2018,11,05,08,39,85.50
2018,11,05,08,40,87.70
2018,11,05,08,41,86.00
2018,11,05,08,42,86.00
2018,11,05,08,43,86.00
2018,11,05,08,44,86.80
2018,11,05,08,45,86.00
2018,11,05,08,46,83.40
2018,11,05,08,47,78.80
2018,11,05,08,48,70.50
2018,11,05,08,49,65.30
2018,11,05,08,50,67.50
2018,11,05,08,51,71.50
2018,11,05,08,52,69.70
2018,11,05,08,53,69.00
2018,11,05,08,54,69.50
2018,11,05,08,55,76.20
2018,11,05,08,56,66.00
2018,11,05,08,57,56.60
2018,11,05,08,58,57.90
2018,11,05,08,59,58.00
2018,11,05,09,00,59.20
2018,11,05,09,01,63.10
2018,11,05,09,02,67.50
2018,11,05,09,03,72.20
2018,11,05,09,04,82.40
2018,11,05,09,05,84.50
2018,11,05,09,06,90.60
2018,11,05,09,07,97.30
2018,11,05,09,08,101.00
2018,11,05,09,09,103.30
2018,11,05,09,10,102.00
2018,11,05,09,11,99.50
2018,11,05,09,12,95.80
2018,11,05,09,13,97.20
2018,11,05,09,14,98.00
2018,11,05,09,15,104.00
2018,11,05,09,16,118.10
2018,11,05,09,17,136.80
2018,11,05,09,18,155.00
2018,11,05,09,19,155.00
2018,11,05,09,20,155.60
2018,11,05,09,21,180.10
2018,11,05,09,22,133.80
2018,11,05,09,23,106.30
2018,11,05,09,24,97.70
2018,11,05,09,25,90.60
2018,11,05,09,26,87.40
2018,11,05,09,27,86.00
2018,11,05,09,28,86.00
2018,11,05,09,29,88.50
2018,11,05,09,30,88.60
2018,11,05,09,31,92.30
2018,11,05,09,32,95.30
2018,11,05,09,33,105.10
2018,11,05,09,34,111.80
2018,11,05,09,35,112.90
2018,11,05,09,36,114.20
2018,11,05,09,37,118.00
2018,11,05,09,38,119.30
2018,11,05,09,39,116.80
2018,11,05,09,40,110.10
2018,11,05,09,41,120.10
2018,11,05,09,42,137.00
2018,11,05,09,43,162.50
2018,11,05,09,44,176.70
2018,11,05,09,45,157.50
2018,11,05,09,46,173.40
2018,11,05,09,47,152.00
2018,11,05,09,48,137.20
2018,11,05,09,49,101.30
2018,11,05,09,50,85.50
2018,11,05,09,51,81.00
2018,11,05,09,52,79.30
2018,11,05,09,53,77.10
2018,11,05,09,54,81.10
2018,11,05,09,55,89.50
2018,11,05,09,56,96.80
2018,11,05,09,57,93.80
2018,11,05,09,58,98.60
2018,11,05,09,59,115.30
2018,11,05,10,00,125.20
2018,11,05,10,01,134.70
2018,11,05,10,02,143.30
2018,11,05,10,03,144.20
2018,11,05,10,04,136.10
2018,11,05,10,05,132.40
2018,11,05,10,06,134.60
2018,11,05,10,07,152.20
2018,11,05,10,08,121.20
2018,11,05,10,09,95.30
2018,11,05,10,10,88.40
2018,11,05,10,11,84.90
2018,11,05,10,12,83.40
2018,11,05,10,13,81.50
2018,11,05,10,14,77.60
2018,11,05,10,15,75.80
2018,11,05,10,16,71.70
2018,11,05,10,17,70.00
2018,11,05,10,18,70.70
2018,11,05,10,19,72.90
2018,11,05,10,20,75.70
2018,11,05,10,21,90.00
2018,11,05,10,22,135.20
2018,11,05,10,23,136.10
2018,11,05,10,24,158.80
2018,11,05,10,25,203.60
2018,11,05,10,26,378.00
2018,11,05,10,27,378.00
2018,11,05,10,28,380.20
2018,11,05,10,29,402.40
2018,11,05,10,30,385.50
2018,11,05,10,31,367.20
2018,11,05,10,32,343.40
2018,11,05,10,33,327.50
2018,11,05,10,34,198.50
2018,11,05,10,35,208.00
2018,11,05,10,36,226.00
2018,11,05,10,37,228.90
2018,11,05,10,38,211.00
2018,11,05,10,39,188.60
2018,11,05,10,40,170.60
2018,11,05,10,41,156.60
2018,11,05,10,42,145.00
2018,11,05,10,43,137.80
2018,11,05,10,44,133.30
2018,11,05,10,45,132.00
2018,11,05,10,46,133.20
2018,11,05,10,47,134.00
2018,11,05,10,48,134.80
2018,11,05,10,49,135.00
2018,11,05,10,50,135.00
2018,11,05,10,51,135.00
2018,11,05,10,52,135.60
2018,11,05,10,53,137.00
2018,11,05,10,54,138.10
2018,11,05,10,55,139.00
2018,11,05,10,56,137.60
2018,11,05,10,57,135.30
2018,11,05,10,58,135.00
2018,11,05,10,59,133.40
2018,11,05,11,00,129.60
2018,11,05,11,01,127.60
2018,11,05,11,02,123.80
2018,11,05,11,03,121.70
2018,11,05,11,04,126.50
2018,11,05,11,05,134.80
2018,11,05,11,06,141.50
2018,11,05,11,07,149.00
2018,11,05,11,08,157.10
2018,11,05,11,09,162.90
2018,11,05,11,10,167.60
2018,11,05,11,11,173.40
2018,11,05,11,12,179.00
2018,11,05,11,13,182.30
2018,11,05,11,14,181.40
2018,11,05,11,15,179.10
2018,11,05,11,16,175.60
2018,11,05,11,17,171.00
2018,11,05,11,18,165.20
2018,11,05,11,19,160.20
2018,11,05,11,20,158.00
2018,11,05,11,21,156.80
2018,11,05,11,22,155.30
2018,11,05,11,23,151.80
2018,11,05,11,24,148.70
2018,11,05,11,25,140.70
2018,11,05,11,26,139.50
2018,11,05,11,27,141.40
2018,11,05,11,28,141.50
2018,11,05,11,29,137.60
2018,11,05,11,30,130.10
2018,11,05,11,31,121.90
2018,11,05,11,32,114.60
2018,11,05,11,33,113.10
2018,11,05,11,34,114.00
2018,11,05,11,35,114.60
2018,11,05,11,36,114.10
2018,11,05,11,37,107.30
2018,11,05,11,38,99.40
2018,11,05,11,39,92.70
2018,11,05,11,40,88.60
2018,11,05,11,41,84.20
2018,11,05,11,42,84.00
2018,11,05,11,43,84.40
2018,11,05,11,44,86.70
2018,11,05,11,45,88.90
2018,11,05,11,46,90.60
2018,11,05,11,47,98.70
2018,11,05,11,48,104.10
2018,11,05,11,49,108.60
2018,11,05,11,50,111.10
2018,11,05,11,51,113.00
2018,11,05,11,52,113.20
2018,11,05,11,53,114.00
2018,11,05,11,54,115.10
2018,11,05,11,55,117.20
2018,11,05,11,56,119.40
2018,11,05,11,57,122.40
2018,11,05,11,58,124.80
2018,11,05,11,59,127.10
2018,11,05,12,00,128.50
2018,11,05,12,01,130.70
2018,11,05,12,02,131.20
2018,11,05,12,03,130.00
2018,11,05,12,04,128.70
2018,11,05,12,05,128.00
2018,11,05,12,06,127.20
2018,11,05,12,07,127.00
2018,11,05,12,08,127.20
2018,11,05,12,09,128.00
2018,11,05,12,10,128.70
2018,11,05,12,11,130.90
2018,11,05,12,12,133.20
2018,11,05,12,13,134.00
2018,11,05,12,14,132.40
2018,11,05,12,15,130.20
2018,11,05,12,16,127.90
2018,11,05,12,17,126.60
2018,11,05,12,18,125.00
2018,11,05,12,19,125.00
2018,11,05,12,20,125.00
2018,11,05,12,21,126.90
2018,11,05,12,22,129.50
2018,11,05,12,23,131.60
2018,11,05,12,24,130.00
2018,11,05,12,25,127.90
2018,11,05,12,26,126.50
2018,11,05,12,27,124.30
2018,11,05,12,28,122.10
2018,11,05,12,29,118.10
2018,11,05,12,30,116.00
2018,11,05,12,31,114.50
2018,11,05,12,32,119.10
2018,11,05,12,33,127.90
2018,11,05,12,34,134.40
2018,11,05,12,35,137.00
2018,11,05,12,36,135.00
2018,11,05,12,37,126.80
2018,11,05,12,38,117.20
2018,11,05,12,39,110.70
2018,11,05,12,40,105.80
2018,11,05,12,41,100.50
2018,11,05,12,42,100.50
2018,11,05,12,43,105.50
2018,11,05,12,44,110.20
2018,11,05,12,45,116.90
2018,11,05,12,46,120.80
2018,11,05,12,47,124.20
2018,11,05,12,48,125.00
2018,11,05,12,49,125.00
2018,11,05,12,50,123.10
2018,11,05,12,51,121.00
2018,11,05,12,52,121.00
2018,11,05,12,53,120.60
2018,11,05,12,54,120.40
2018,11,05,12,55,126.40
2018,11,05,12,56,136.20
2018,11,05,12,57,146.00
2018,11,05,12,58,152.20
2018,11,05,12,59,154.90
2018,11,05,13,00,155.20
2018,11,05,13,01,157.20
2018,11,05,13,02,158.50
2018,11,05,13,03,153.50
2018,11,05,13,04,151.00
2018,11,05,13,05,148.90
2018,11,05,13,06,150.40
2018,11,05,13,07,152.90
2018,11,05,13,08,150.60
2018,11,05,13,09,157.80
2018,11,05,13,10,151.60
2018,11,05,13,11,161.40
2018,11,05,13,12,165.60
2018,11,05,13,13,147.20
2018,11,05,13,14,122.20
2018,11,05,13,15,111.80
2018,11,05,13,16,103.50
2018,11,05,13,17,95.40
2018,11,05,13,18,106.00
2018,11,05,13,19,124.50
2018,11,05,13,20,119.60
2018,11,05,13,21,116.80
2018,11,05,13,22,111.20
2018,11,05,13,23,114.30
2018,11,05,13,24,133.10
2018,11,05,13,25,130.00
2018,11,05,13,26,133.80
2018,11,05,13,27,150.40
2018,11,05,13,28,153.90
2018,11,05,13,29,155.00
2018,11,05,13,30,155.60
2018,11,05,13,31,155.30
2018,11,05,13,32,155.00
2018,11,05,13,33,155.30
2018,11,05,13,34,163.70
2018,11,05,13,35,180.20
2018,11,05,13,36,164.40
2018,11,05,13,37,158.90
2018,11,05,13,38,143.10
2018,11,05,13,39,137.70
2018,11,05,13,40,126.30
2018,11,05,13,41,111.00
2018,11,05,13,42,100.30
2018,11,05,13,43,85.10
2018,11,05,13,44,88.80
2018,11,05,13,45,84.80
2018,11,05,13,46,84.50
2018,11,05,13,47,89.00
2018,11,05,13,48,95.20
2018,11,05,13,49,103.80
2018,11,05,13,50,100.30
2018,11,05,13,51,96.30
2018,11,05,13,52,89.60
2018,11,05,13,53,89.00
2018,11,05,13,54,92.80
2018,11,05,13,55,92.20
2018,11,05,13,56,82.30
2018,11,05,13,57,79.00
2018,11,05,13,58,74.70
2018,11,05,13,59,77.20
2018,11,05,14,00,81.80
2018,11,05,14,01,92.20
2018,11,05,14,02,84.80
2018,11,05,14,03,77.00
2018,11,05,14,04,76.40
2018,11,05,14,05,80.90
2018,11,05,14,06,83.80
2018,11,05,14,07,84.00
2018,11,05,14,08,68.70
2018,11,05,14,09,67.00
2018,11,05,14,10,69.10
2018,11,05,14,11,77.90
2018,11,05,14,12,81.90
2018,11,05,14,13,67.30
2018,11,05,14,14,55.00
2018,11,05,14,15,51.30
2018,11,05,14,16,47.20
2018,11,05,14,17,46.20
2018,11,05,14,18,48.00
2018,11,05,14,19,51.70
2018,11,05,14,20,53.50
2018,11,05,14,21,56.40
2018,11,05,14,22,62.70
2018,11,05,14,23,70.50
2018,11,05,14,24,79.70
2018,11,05,14,25,78.30
2018,11,05,14,26,72.80
2018,11,05,14,27,84.70
2018,11,05,14,28,110.40
2018,11,05,14,29,116.30
2018,11,05,14,30,102.10
2018,11,05,14,31,97.30
2018,11,05,14,32,99.50
2018,11,05,14,33,116.40
2018,11,05,14,34,120.40
2018,11,05,14,35,123.80
2018,11,05,14,36,129.40
2018,11,05,14,37,135.40
2018,11,05,14,38,141.90
2018,11,05,14,39,147.30
2018,11,05,14,40,136.80
2018,11,05,14,41,134.00
2018,11,05,14,42,154.00
2018,11,05,14,43,165.40
2018,11,05,14,44,177.40
2018,11,05,14,45,167.90
2018,11,05,14,46,149.90
2018,11,05,14,47,143.80
2018,11,05,14,48,137.10
2018,11,05,14,49,134.20
2018,11,05,14,50,130.40
2018,11,05,14,51,122.30
2018,11,05,14,52,116.30
2018,11,05,14,53,111.70
2018,11,05,14,54,112.10
2018,11,05,14,55,113.80
2018,11,05,14,56,111.80
2018,11,05,14,57,106.00
2018,11,05,14,58,105.00
2018,11,05,14,59,102.10
2018,11,05,15,00,98.30
2018,11,05,15,01,99.50
2018,11,05,15,02,98.70
2018,11,05,15,03,98.50
2018,11,05,15,04,95.80
2018,11,05,15,05,96.40
2018,11,05,15,06,97.00
2018,11,05,15,07,95.30
2018,11,05,15,08,93.10
2018,11,05,15,09,92.60
2018,11,05,15,10,90.00
2018,11,05,15,11,87.20
2018,11,05,15,12,85.00
2018,11,05,15,13,83.40
2018,11,05,15,14,83.00
2018,11,05,15,15,83.80
2018,11,05,15,16,89.80
2018,11,05,15,17,92.30
2018,11,05,15,18,84.60
2018,11,05,15,19,78.00
2018,11,05,15,20,74.30
2018,11,05,15,21,70.30
2018,11,05,15,22,65.10
2018,11,05,15,23,59.20
2018,11,05,15,24,59.80
2018,11,05,15,25,68.80
2018,11,05,15,26,87.90
2018,11,05,15,27,87.70
2018,11,05,15,28,55.40
2018,11,05,15,29,51.20
2018,11,05,15,30,54.90
2018,11,05,15,31,38.00
2018,11,05,15,32,28.80
2018,11,05,15,33,26.20
2018,11,05,15,34,25.00
2018,11,05,15,35,24.50
2018,11,05,15,36,23.60
2018,11,05,15,37,25.00
2018,11,05,15,38,26.60
2018,11,05,15,39,26.10
2018,11,05,15,40,23.60
2018,11,05,15,41,24.60
2018,11,05,15,42,25.00
2018,11,05,15,43,25.90
2018,11,05,15,44,25.00
2018,11,05,15,45,26.10
2018,11,05,15,46,28.00
2018,11,05,15,47,26.80
2018,11,05,15,48,25.30
2018,11,05,15,49,23.40
2018,11,05,15,50,23.00
2018,11,05,15,51,23.00
2018,11,05,15,52,23.00
2018,11,05,15,53,22.40
2018,11,05,15,54,21.00
2018,11,05,15,55,21.00
2018,11,05,15,56,21.00
2018,11,05,15,57,19.60
2018,11,05,15,58,20.70
2018,11,05,15,59,19.10
2018,11,05,16,00,18.00
2018,11,05,16,01,18.00
2018,11,05,16,02,18.00
2018,11,05,16,03,17.10
2018,11,05,16,04,16.00
2018,11,05,16,05,16.00
2018,11,05,16,06,16.00
2018,11,05,16,07,14.30
2018,11,05,16,08,14.00
2018,11,05,16,09,14.00
2018,11,05,16,10,14.00
2018,11,05,16,11,13.30
2018,11,05,16,12,12.00
2018,11,05,16,13,12.00
2018,11,05,16,14,13.30
2018,11,05,16,15,12.40
2018,11,05,16,16,12.00
2018,11,05,16,17,12.00
2018,11,05,16,18,12.00
2018,11,05,16,19,12.00
2018,11,05,16,20,11.60
2018,11,05,16,21,11.00
2018,11,05,16,22,11.00
2018,11,05,16,23,11.00
2018,11,05,16,24,11.00
2018,11,05,16,25,11.00
2018,11,05,16,26,11.00
2018,11,05,16,27,11.20
2018,11,05,16,28,11.60
2018,11,05,16,29,11.00
2018,11,05,16,30,9.90
2018,11,05,16,31,9.00
2018,11,05,16,32,9.00
2018,11,05,16,33,9.00
2018,11,05,16,34,8.80
2018,11,05,16,35,7.00
2018,11,05,16,36,7.00
2018,11,05,16,37,7.00
2018,11,05,16,38,7.00
2018,11,05,16,39,7.00
2018,11,05,16,40,7.00
2018,11,05,16,41,5.30
2018,11,05,16,42,6.80
2018,11,05,16,43,5.00
2018,11,05,16,44,5.00
2018,11,05,16,45,5.00
2018,11,05,16,46,5.00
2018,11,05,16,47,5.00
2018,11,05,16,48,5.00
2018,11,05,16,49,5.00
2018,11,05,16,50,5.00
2018,11,05,16,51,0.00
2018,11,05,16,52,0.00
2018,11,05,16,53,0.00
2018,11,05,16,54,0.00
2018,11,05,16,55,0.00
2018,11,05,16,56,0.00
2018,11,05,16,57,0.00
2018,11,05,16,58,0.00
2018,11,05,16,59,0.00
2018,11,05,17,00,0.00
2018,11,05,17,01,0.00
2018,11,05,17,02,0.00
2018,11,05,17,03,0.00
2018,11,05,17,04,0.00
2018,11,05,17,05,0.00
2018,11,05,17,06,0.00
2018,11,05,17,07,0.00
2018,11,05,17,08,0.00
2018,11,05,17,09,0.00
2018,11,05,17,10,0.00
2018,11,05,17,11,0.00
2018,11,05,17,12,0.00
2018,11,05,17,13,0.00
2018,11,05,17,14,0.00
2018,11,05,17,15,0.00
2018,11,05,17,16,0.00
2018,11,05,17,17,0.00
2018,11,05,17,18,0.00
2018,11,05,17,19,0.00
2018,11,05,17,20,0.00
2018,11,05,17,21,0.00
2018,11,05,17,22,0.00
2018,11,05,17,23,0.00
2018,11,05,17,24,0.00
2018,11,05,17,25,0.00
2018,11,05,17,26,0.00
2018,11,05,17,27,0.00
2018,11,05,17,28,0.00
2018,11,05,17,29,0.00
2018,11,05,17,30,0.00